This demonstration page uses our WeatherBlox Daily Observations layout. Learn more.

Left ArrowRight Arrow

Hourly Observations for June 17, 2018

Temp ( °F °C ) Dew Point ( °F °C ) Humidity (%) Winds ( mph kmh ) Pressure ( in mb ) Visibility ( mi km ) Precip ( " mm )
12:53 am 00:53 Cloudy 53 11.7 50 10 89 89 Calm 30.08 1019 10 16 0.00 0.00
1:53 am 01:53 Cloudy 52 11.1 51 10.6 97 97 Calm 30.09 1019 10 16 0.00 0.00
2:53 am 02:53 Cloudy 51 10.6 50 10 96 96 Calm 30.09 1019 10 16 0.00 0.00
3:53 am 03:53 Cloudy 51 10.6 50 10 96 96 Calm 30.08 1019 10 16 0.00 0.00
4:53 am 04:53 Partly Cloudy 48 8.9 47 8.3 96 96 S 5 7 30.09 1019 10 16 0.00 0.00
5:53 am 05:53 Sunny 46 7.8 45 7.2 96 96 S 6 9 30.11 1020 10 16 0.00 0.00
6:53 am 06:53 Sunny 50 10 48 8.9 93 93 SSW 3 6 30.11 1020 10 16 0.00 0.00
7:53 am 07:53 Partly Cloudy 54 12.2 51 10.6 90 90 W 3 6 30.13 1020 10 16 0.00 0.00
8:53 am 08:53 Sunny 58 14.4 50 10 75 75 Calm 30.12 1020 10 16 0.00 0.00
9:53 am 09:53 Sunny 62 16.7 49 9.4 62 62 Calm 30.11 1020 10 16 0.00 0.00
10:53 am 10:53 Sunny 65 18.3 47 8.3 52 52 E 8 13 30.10 1019 10 16 0.00 0.00
11:53 am 11:53 Sunny 68 20 46 7.8 45 45 E 9 15 30.10 1019 10 16 0.00 0.00
12:53 pm 12:53 Sunny 69 20.6 45 7.2 42 42 ENE 9 15 30.09 1019 10 16 0.00 0.00
1:53 pm 13:53 Mostly Sunny 69 20.6 42 5.6 38 38 E 12 19 30.07 1018 10 16 0.00 0.00
2:53 pm 14:53 Partly Cloudy 69 20.6 41 5 36 36 SE 6 9 30.07 1018 10 16 0.00 0.00
3:53 pm 15:53 Cloudy 69 20.6 43 6.1 39 39 SE 12 19 30.07 1018 10 16 0.00 0.00
4:53 pm 16:53 Cloudy 70 21.1 43 6.1 38 38 ESE 9 15 30.07 1018 10 16 0.00 0.00
5:53 pm 17:53 Cloudy 71 21.7 42 5.6 35 35 E 12 19 30.06 1018 10 16 0.00 0.00
6:53 pm 18:53 Cloudy 69 20.6 44 6.7 41 41 ESE 9 15 30.06 1018 10 16 0.00 0.00
7:53 pm 19:53 Cloudy 68 20 44 6.7 42 42 SE 7 11 30.06 1018 10 16 0.00 0.00
8:53 pm 20:53 Cloudy 65 18.3 49 9.4 56 56 ESE 6 9 30.06 1018 10 16 0.00 0.00
9:53 pm 21:53 Cloudy 63 17.2 51 10.6 65 65 ESE 5 7 30.07 1018 10 16 0.00 0.00
10:53 pm 22:53 Cloudy 62 16.7 50 10 65 65 E 3 6 30.07 1018 10 16 0.00 0.00
11:53 pm 23:53 Cloudy 62 16.7 52 11.1 70 70 ENE 3 6 30.07 1018 10 16 0.00 0.00

Powered by AerisWeather